Location: Trebic
(49.2170°N, 15.8830°E)
Time: 12:39:27
(UTC+02:00)

Transit 4A - Pass Details

Date: 27 August 2019
Orbit: 865 x 980 km, 66.8° (Epoch: 15 September)

Event Time Altitude Azimuth Distance (km) Brightness Sun altitude
Rises 20:41:40 0° 270° (W) 3,681 12.3 -8.6°
Reaches altitude 10° 20:44:54 10° 286° (WNW) 2,731 11.9 -9.1°
Maximum altitude 20:49:45 22° 335° (NNW) 1,986 10.4 -9.8°
Drops below altitude 10° 20:54:33 10° 25° (NNE) 2,702 10.4 -10.5°
Sets 20:57:45 0° 41° (NE) 3,631 10.9 -11.0°
